Temperature
12 12 12 13 13 13 13 14 14 14 14 14 14 14 14 14 14 14 14 14 14 14 14 14 14 14 14 14 14 14 14 14 14 14 14 14 14 14 13 13 13 13 13
11 11 11 11 11 11 12 12 13 13 13 14 13 14 14 14 14 14 14 14 14 14 14 14 14 14 14 14 14 14 14 14 14 14 13 13 13 13 13 13 13 13 12
11 10 10 10 10 10 10 11 11 12 12 13 13 13 13 13 14 14 14 14 14 14 14 14 14 14 14 14 14 14 14 14 14 14 13 13 12 12 12 12 12 12 12
11 10 10 10 10 10 10 10 10 10 11 11 12 12 13 13 13 13 13 13 14 14 13 13 13 14 14 14 14 14 14 14 13 13 12 12 12 11 12 11 11 11 11
11 10 10 10 10 10 10 9 9 9 10 10 10 11 12 12 12 13 13 13 13 13 13 13 13 13 13 13 13 13 13 13 13 12 12 11 11 11 11 11 11 11 11
11 10 10 10 10 10 10 9 9 9 9 9 9 10 11 11 12 12 12 13 13 13 13 13 13 13 13 13 13 13 13 13 12 12 11 11 11 11 11 11 11 11 10
10 10 10 10 10 10 10 10 9 9 9 9 9 9 10 10 11 12 12 12 13 13 13 13 12 12 12 12 12 12 12 12 12 12 11 11 11 11 11 11 11 11 11
9 9 9 9 9 9 9 9 9 9 9 9 9 9 9 10 10 11 11 12 12 12 12 12 12 12 12 12 12 11 11 11 11 11 11 11 11 11 11 11 12 11 11
9 8 8 8 9 9 9 9 9 9 9 8 9 9 9 9 10 10 10 11 11 12 12 12 12 12 11 11 11 11 11 11 11 11 11 11 11 11 11 12 12 12 11
8 8 8 8 8 8 8 8 8 8 8 8 8 9 9 9 9 10 10 10 11 11 11 12 12 12 11 11 11 11 11 11 11 11 11 11 11 11 11 12 12 12 12
7 7 7 7 7 7 7 7 8 8 8 8 8 8 9 9 9 9 9 10 10 10 11 11 11 11 11 11 11 11 11 11 11 11 11 11 11 11 11 11 12 12 12
6 6 6 6 6 7 7 7 7 7 7 7 8 8 9 9 9 9 9 9 9 10 11 11 11 11 11 11 11 11 11 11 11 11 11 11 11 11 11 11 11 12 12
5 5 5 5 6 6 6 6 7 7 7 7 8 8 9 9 9 9 9 9 9 9 10 11 11 11 11 11 11 11 11 11 11 11 11 10 10 10 10 10 11 11 11
4 5 5 5 5 6 6 6 6 7 7 7 8 8 9 9 9 9 9 8 9 9 9 10 11 11 11 11 11 11 11 11 11 11 11 10 10 10 10 10 10 10 10
4 4 5 5 5 5 6 6 6 7 7 7 7 8 8 8 8 8 8 8 8 8 9 10 10 10 10 10 11 11 11 11 11 11 10 10 10 9 9 9 9 10 10
4 4 4 5 5 5 6 6 6 7 7 7 7 8 8 8 8 8 8 8 8 8 8 9 10 10 10 10 10 11 11 11 11 11 10 10 10 10 10 10 10 10 9
4 4 4 5 5 5 6 6 6 7 7 7 7 8 8 8 8 8 8 8 8 8 8 9 10 10 10 10 11 11 11 11 11 10 10 10 10 10 10 10 10 10 10
4 4 5 5 5 6 6 6 6 7 7 7 7 7 8 8 8 7 7 7 7 8 9 10 11 11 11 11 11 11 11 11 11 10 10 10 10 10 10 10 10 11 10
5 5 5 5 5 6 6 6 7 7 7 7 7 7 7 7 7 7 7 7 8 8 10 11 11 11 11 11 11 11 11 10 10 10 10 10 10 10 10 10 11 11 11
5 5 5 5 6 6 6 7 7 7 7 7 7 7 7 7 6 6 7 7 8 9 11 11 12 12 12 12 11 11 11 10 10 10 10 10 10 10 10 11 11 11 11
5 6 6 6 6 6 7 7 7 7 7 7 7 7 7 7 6 7 7 8 9 10 11 11 12 12 12 12 11 11 11 10 10 10 10 10 10 11 11 11 11 10 10
6 6 6 7 7 7 7 7 7 8 8 7 7 7 7 7 7 7 7 8 9 10 11 11 12 12 12 12 12 11 11 10 10 11 10 10 11 11 11 11 11 11 11
7 7 7 7 7 7 7 7 8 8 8 7 7 7 7 7 7 7 8 8 9 10 11 11 12 12 12 12 12 12 11 11 11 11 11 11 11 11 11 11 11 11 11
7 8 8 8 8 8 8 8 8 8 8 7 7 7 7 7 7 8 8 9 10 10 11 11 12 12 12 12 12 12 12 12 11 11 11 11 11 11 11 11 11 11 11
8 8 8 8 8 8 8 8 8 8 8 8 7 7 7 8 8 8 9 10 10 11 11 11 12 12 12 12 12 12 12 12 11 11 11 11 11 11 11 11 11 11 11
8 8 8 8 8 8 8 8 8 8 8 8 8 8 8 8 8 9 10 10 10 11 11 12 12 12 12 12 12 12 12 12 12 11 11 11 11 11 11 11 11 11 11
Wind_Speed
7 7 7 7 8 8 7 7 7 8 9 9 9 9 9 9 8 8 7 8 7 7 7 7 7 7 6 6 6 6 7 7 5 2 4 7 9 10 9 11 12 11 13
7 7 8 8 9 9 9 8 8 8 8 9 9 10 11 11 9 9 8 7 7 6 6 6 7 7 7 6 6 6 6 7 6 8 6 6 8 10 11 10 9 11 12
9 8 8 9 9 10 10 10 10 10 9 9 8 10 10 11 11 10 9 7 7 6 5 5 5 6 7 6 6 5 4 6 7 10 9 7 7 8 10 10 11 9 11
10 10 10 11 11 11 11 11 11 11 11 10 9 8 9 11 12 11 10 8 6 5 4 3 4 4 5 6 4 3 3 6 10 11 11 9 8 8 9 10 9 7 8
11 11 11 11 11 11 11 11 11 12 13 11 10 9 9 10 11 11 10 10 7 5 3 1 2 3 3 3 1 2 6 8 10 11 11 9 8 9 8 6 9 8 8
11 12 11 11 11 11 11 12 12 12 12 11 11 11 10 12 12 11 9 7 5 4 4 3 4 3 4 6 8 7 8 10 11 10 9 10 8 6 5 7 8 9 7
12 12 12 11 11 11 14 13 12 11 11 11 11 11 10 10 11 10 10 7 6 5 6 6 5 6 5 6 9 12 12 12 11 9 11 9 7 6 6 6 7 7 6
13 14 13 12 12 11 11 11 10 9 9 10 10 11 10 10 10 10 10 8 7 7 7 7 7 8 7 8 8 9 9 9 9 8 9 8 6 5 6 7 7 7 7
16 15 15 14 13 12 12 10 9 8 9 9 10 11 11 9 9 10 10 7 8 8 8 9 11 10 11 11 10 12 11 9 11 15 14 12 11 9 7 6 7 7 7
17 16 15 15 15 14 12 11 11 9 9 11 11 11 10 8 8 9 10 7 8 8 8 10 13 13 13 11 11 12 12 11 11 13 11 10 9 8 8 5 3 5 7
17 17 16 15 15 15 13 12 11 11 11 11 11 11 9 8 8 10 11 7 7 7 9 9 10 16 15 12 11 10 13 13 11 10 8 7 6 5 7 6 5 3 6
17 18 17 15 16 16 12 11 10 10 10 11 11 12 10 7 8 10 13 11 5 4 7 9 12 17 15 13 9 14 17 14 8 8 7 6 6 7 7 8 7 7 9
19 19 17 17 15 14 13 12 10 9 9 10 10 10 9 7 7 10 12 10 7 4 4 10 17 18 15 11 14 17 14 8 7 7 7 7 7 8 7 6 6 6 7
19 18 16 15 15 13 11 10 10 9 9 10 10 8 6 4 5 6 6 6 6 3 4 13 18 16 11 12 13 11 7 6 7 7 9 9 7 6 6 6 5 6 7
18 16 15 14 13 12 11 10 11 9 9 8 6 4 3 4 6 9 8 7 5 5 8 10 11 10 9 9 9 8 6 6 6 8 10 9 7 6 5 6 5 6 6
15 14 12 10 10 10 10 10 12 12 9 8 6 3 2 4 7 9 10 10 9 9 9 10 12 11 11 11 10 8 6 6 7 9 9 8 7 6 5 5 5 6 7
14 13 10 10 9 9 9 8 7 7 7 7 6 6 7 9 8 9 10 11 10 9 8 9 10 10 10 10 9 8 7 7 7 8 8 7 6 6 6 5 4 5 6
13 13 11 9 8 8 7 7 7 7 7 6 5 8 10 10 9 10 12 11 7 7 8 8 9 9 9 9 9 8 7 8 7 7 7 7 6 6 6 5 4 5 6
9 7 7 6 6 6 6 6 6 6 5 5 7 6 8 9 8 9 10 7 9 9 7 6 8 8 8 8 8 8 9 8 7 7 7 7 7 6 6 5 5 6 5
6 4 3 2 3 4 5 5 5 5 5 5 7 8 8 7 5 6 5 6 7 7 4 4 5 7 8 8 8 9 10 8 7 7 7 6 6 6 6 6 7 5 3
4 1 2 2 2 2 3 3 4 4 5 6 6 9 12 9 8 9 8 7 6 5 3 3 4 7 7 8 9 10 10 9 7 7 8 6 6 6 6 6 7 6 5
4 2 1 2 2 2 3 3 3 4 5 8 8 9 10 8 9 8 7 6 5 4 3 3 4 6 7 8 9 9 10 9 8 7 8 7 6 6 6 6 7 7 6
5 4 4 4 4 4 4 3 3 4 6 7 9 9 8 8 9 9 9 7 5 5 4 3 3 5 6 7 8 8 9 10 8 8 8 8 6 5 5 5 7 6 6
5 5 4 4 4 4 4 4 3 4 6 8 8 8 8 8 10 10 9 8 7 6 5 4 4 6 8 7 6 7 7 9 9 8 9 9 8 6 5 5 5 6 6
6 6 5 4 4 4 4 4 4 5 6 7 8 8 8 9 10 10 10 9 9 7 7 6 4 6 9 9 7 6 10 13 11 10 7 6 7 8 7 7 6 5 6
6 5 4 3 3 3 3 3 4 5 5 6 7 8 9 10 11 11 10 9 8 7 6 5 6 7 8 8 10 12 13 14 12 9 6 6 5 5 6 5 7 6 6
Wind_Direction
331 330 327 325 325 325 322 331 336 336 334 322 307 293 279 264 254 247 251 264 271 279 287 294 299 297 289 281 268 251 236 218 206 128 112 125 119 117 110 112 112 103 102
314 315 316 315 313 310 310 316 317 317 319 320 314 300 285 275 264 254 254 265 274 281 292 302 307 309 310 296 277 256 235 208 172 146 133 130 124 121 118 113 109 105 104
287 285 286 289 293 294 296 299 300 301 302 305 310 308 298 287 278 268 257 255 262 274 288 300 310 315 314 306 290 265 229 194 157 144 138 129 123 125 120 114 113 112 109
268 262 261 263 266 270 275 278 281 284 286 288 291 297 301 297 284 272 265 254 253 261 274 296 315 321 318 307 288 252 176 145 139 139 138 135 130 128 125 127 126 129 127
277 270 263 258 256 258 262 265 269 271 275 277 281 286 291 293 282 277 268 254 237 235 229 202 43 34 10 349 311 164 145 136 137 136 136 135 137 140 141 144 140 138 130
280 277 271 264 261 260 258 258 260 262 265 267 268 272 279 282 297 301 282 265 246 222 204 165 140 111 82 72 77 90 122 134 137 136 136 141 143 142 141 148 147 144 142
292 288 281 274 269 264 267 264 257 256 257 259 262 261 263 269 269 264 264 261 240 216 195 178 174 139 134 112 94 88 90 104 121 130 137 140 145 154 160 164 163 155 140
293 292 290 286 283 276 267 264 263 264 264 265 266 265 262 267 258 245 244 244 239 218 192 173 153 151 153 138 123 109 103 103 117 124 124 123 132 147 151 150 138 126 124
292 289 289 287 284 280 276 270 267 265 265 265 266 261 257 257 247 233 225 235 227 214 191 171 158 154 154 149 131 118 110 105 102 106 109 113 112 106 112 132 139 136 133
291 290 288 284 281 278 276 275 274 269 266 265 262 260 257 252 231 218 212 231 225 205 185 167 160 152 154 150 140 133 128 127 125 120 116 120 116 106 95 95 117 148 144
290 288 285 281 279 276 271 268 266 265 265 265 266 267 259 246 225 208 203 220 232 203 179 166 156 151 150 148 146 137 138 137 133 131 127 123 114 98 82 71 63 108 138
289 286 282 278 276 275 269 267 265 260 260 262 259 257 255 237 214 202 199 208 230 238 189 167 156 154 149 148 145 144 147 144 139 137 135 135 120 98 88 80 70 67 89
287 283 280 278 273 269 266 265 263 254 252 255 254 248 243 228 197 191 194 196 208 238 232 162 151 150 144 144 150 154 158 158 148 147 141 125 112 112 106 97 89 80 73
282 280 278 275 270 264 257 254 253 248 246 248 252 255 241 208 188 178 177 171 158 173 174 149 142 146 144 138 150 162 176 172 155 143 126 119 120 128 134 138 131 115 96
281 278 276 271 265 261 255 248 245 242 239 242 246 244 235 216 191 178 173 174 156 145 150 152 148 149 148 149 161 176 184 158 142 128 127 133 143 155 157 155 146 134 124
281 278 272 266 262 255 251 251 234 228 219 204 198 188 157 138 150 169 167 155 139 152 170 163 157 157 157 160 168 172 167 148 140 133 137 146 158 160 149 147 156 149 146
278 274 269 264 258 250 242 235 231 215 193 183 185 169 147 138 146 159 155 150 149 161 191 175 162 161 160 163 165 160 154 143 136 138 146 152 153 144 141 157 166 145 142
278 272 264 257 251 243 235 226 218 207 193 187 164 148 139 137 139 144 142 138 156 185 203 177 163 161 159 159 159 156 148 140 140 147 152 151 148 146 153 163 154 143 135
283 275 266 253 238 229 224 218 214 206 195 175 148 135 128 123 118 138 150 160 175 194 201 170 161 157 155 155 153 148 142 145 155 154 151 151 152 154 161 167 137 131 147
296 284 273 254 228 219 214 210 194 180 174 165 156 149 145 144 144 149 164 173 187 194 183 156 154 149 150 150 143 142 145 153 160 156 147 153 156 161 168 161 141 149 185
343 2 218 223 200 187 184 183 171 165 161 158 153 150 155 157 155 157 167 180 184 191 180 165 151 150 145 143 146 151 151 156 162 161 151 163 166 167 163 153 148 169 189
5 30 70 96 111 117 129 143 151 150 146 139 135 143 159 156 152 155 166 179 186 196 196 186 172 156 152 153 152 154 155 158 168 166 155 168 169 167 167 165 169 181 183
17 40 66 81 95 110 118 127 137 138 137 139 142 149 163 158 157 161 166 172 190 210 215 200 183 166 159 153 152 158 161 162 167 165 158 166 173 172 176 177 176 174 177
24 36 60 89 108 117 115 127 136 138 140 140 142 150 156 157 159 161 165 176 193 209 216 201 190 176 161 152 156 164 160 156 160 165 165 169 175 179 183 179 180 188 191
27 37 49 65 81 95 106 118 123 126 133 137 144 151 153 158 161 166 174 182 193 205 197 192 191 176 166 163 158 143 138 140 151 162 162 176 184 186 188 185 188 204 206
15 27 40 53 65 77 99 112 122 132 138 144 147 153 159 162 164 169 177 184 188 189 185 175 167 160 158 155 137 130 132 135 133 139 166 184 203 204 198 203 205 208 212
Height
1477 1475 1473 1471 1470 1469 1468 1467 1466 1465 1464 1464 1464 1464 1465 1465 1464 1463 1462 1462 1460 1459 1457 1455 1453 1451 1449 1447 1446 1446 1446 1448 1450 1452 1454 1457 1459 1462 1465 1467 1469 1471 1473
1473 1471 1469 1467 1465 1463 1462 1461 1460 1459 1459 1458 1457 1457 1458 1458 1459 1458 1457 1457 1455 1454 1452 1450 1448 1446 1444 1442 1441 1440 1440 1442 1445 1448 1451 1454 1457 1461 1464 1466 1468 1471 1473
1468 1466 1463 1461 1459 1457 1455 1453 1452 1451 1451 1450 1451 1450 1450 1451 1452 1452 1452 1451 1450 1449 1448 1446 1444 1442 1439 1437 1436 1435 1435 1437 1440 1444 1448 1452 1456 1459 1463 1466 1468 1471 1473
1463 1460 1457 1455 1452 1450 1448 1446 1444 1443 1442 1442 1442 1442 1443 1443 1444 1445 1445 1445 1445 1444 1443 1442 1440 1438 1436 1434 1432 1432 1432 1434 1437 1441 1445 1450 1454 1459 1462 1465 1468 1472 1474
1457 1454 1451 1449 1446 1444 1442 1440 1438 1436 1434 1434 1433 1433 1434 1435 1436 1437 1438 1439 1439 1439 1439 1438 1437 1435 1433 1431 1429 1429 1430 1432 1435 1439 1443 1449 1453 1457 1462 1465 1468 1472 1476
1450 1447 1445 1442 1440 1437 1435 1434 1432 1430 1428 1427 1426 1426 1426 1427 1428 1429 1431 1432 1433 1434 1434 1434 1433 1433 1431 1429 1428 1428 1430 1432 1434 1438 1443 1448 1453 1457 1462 1466 1469 1472 1477
1442 1440 1437 1435 1432 1430 1429 1427 1425 1424 1423 1421 1420 1419 1419 1420 1420 1421 1422 1424 1426 1428 1430 1431 1431 1430 1430 1429 1429 1430 1432 1434 1437 1440 1444 1449 1453 1458 1462 1466 1470 1473 1476
1434 1431 1429 1427 1424 1423 1421 1420 1419 1418 1417 1416 1415 1414 1414 1413 1414 1414 1415 1417 1419 1422 1425 1426 1427 1428 1429 1429 1430 1431 1433 1436 1439 1443 1446 1451 1455 1459 1463 1468 1471 1475 1478
1426 1423 1420 1418 1416 1414 1412 1412 1411 1410 1410 1409 1408 1408 1408 1407 1408 1407 1408 1410 1413 1416 1419 1421 1424 1426 1428 1429 1431 1432 1435 1438 1442 1446 1450 1453 1457 1461 1465 1469 1472 1475 1478
1416 1413 1411 1409 1406 1405 1403 1403 1403 1403 1402 1402 1401 1402 1402 1402 1402 1402 1402 1404 1406 1410 1414 1417 1420 1423 1426 1429 1431 1433 1435 1439 1443 1448 1452 1456 1459 1463 1466 1469 1471 1474 1476
1406 1403 1400 1398 1396 1395 1394 1393 1394 1394 1394 1394 1394 1394 1395 1395 1396 1396 1397 1398 1401 1404 1408 1412 1416 1420 1424 1428 1432 1434 1437 1441 1445 1449 1453 1456 1460 1463 1465 1468 1470 1472 1475
1394 1391 1389 1387 1385 1385 1384 1384 1384 1385 1386 1386 1386 1386 1388 1389 1390 1390 1391 1393 1395 1399 1403 1407 1412 1417 1422 1427 1432 1435 1438 1442 1446 1450 1453 1457 1460 1462 1464 1467 1470 1472 1474
1381 1379 1377 1375 1375 1374 1374 1375 1375 1377 1378 1378 1380 1380 1381 1383 1383 1384 1386 1387 1390 1393 1397 1403 1409 1414 1420 1426 1431 1435 1439 1443 1447 1450 1453 1456 1459 1461 1464 1467 1469 1472 1474
1368 1366 1365 1365 1364 1364 1365 1366 1367 1368 1370 1372 1373 1375 1376 1377 1378 1379 1380 1383 1386 1389 1393 1400 1406 1412 1418 1424 1430 1435 1439 1443 1447 1450 1452 1455 1458 1461 1463 1466 1468 1470 1473
1356 1355 1355 1355 1355 1355 1356 1357 1359 1361 1363 1366 1368 1370 1371 1373 1374 1375 1376 1379 1382 1386 1391 1397 1404 1410 1416 1422 1428 1433 1438 1442 1446 1448 1450 1454 1457 1461 1463 1466 1468 1470 1473
1346 1345 1345 1345 1346 1347 1348 1350 1351 1354 1357 1360 1363 1365 1367 1369 1370 1371 1374 1377 1380 1385 1391 1397 1402 1408 1414 1420 1426 1431 1436 1441 1444 1447 1450 1453 1457 1460 1463 1466 1469 1471 1473
1338 1337 1337 1338 1339 1340 1342 1344 1346 1349 1352 1355 1358 1361 1364 1365 1367 1368 1371 1375 1379 1385 1391 1397 1403 1408 1414 1419 1425 1430 1434 1439 1443 1446 1449 1453 1457 1460 1463 1466 1469 1472 1474
1331 1330 1331 1332 1333 1335 1337 1339 1342 1345 1348 1351 1354 1358 1360 1362 1364 1366 1369 1373 1379 1385 1391 1397 1403 1408 1413 1419 1424 1429 1433 1437 1441 1445 1449 1453 1456 1459 1463 1466 1468 1471 1474
1326 1326 1327 1328 1329 1331 1334 1337 1339 1342 1345 1349 1352 1355 1357 1360 1362 1364 1368 1373 1379 1385 1391 1397 1402 1407 1413 1418 1423 1427 1431 1436 1440 1444 1448 1452 1455 1459 1462 1465 1468 1470 1473
1325 1324 1325 1326 1328 1330 1333 1335 1338 1341 1344 1348 1351 1353 1355 1358 1360 1363 1368 1374 1380 1386 1391 1397 1403 1408 1413 1418 1422 1426 1430 1435 1440 1444 1447 1451 1455 1458 1461 1464 1466 1469 1472
1327 1326 1326 1328 1330 1331 1333 1335 1338 1341 1344 1347 1350 1352 1354 1357 1360 1365 1370 1375 1381 1387 1392 1398 1403 1408 1413 1418 1422 1426 1430 1434 1439 1443 1446 1450 1454 1457 1460 1463 1465 1468 1471
1331 1330 1330 1331 1332 1333 1335 1337 1340 1342 1345 1347 1350 1353 1356 1359 1362 1367 1372 1377 1383 1389 1394 1399 1405 1409 1414 1418 1422 1426 1430 1433 1438 1442 1445 1449 1452 1456 1459 1462 1464 1467 1469
1336 1335 1335 1335 1336 1337 1338 1340 1342 1344 1347 1349 1351 1354 1357 1360 1364 1369 1374 1380 1385 1391 1396 1401 1406 1410 1415 1419 1422 1426 1429 1433 1436 1440 1444 1447 1451 1454 1457 1460 1463 1465 1467
1341 1340 1340 1340 1340 1341 1342 1343 1345 1347 1348 1351 1353 1355 1358 1362 1366 1371 1377 1383 1388 1393 1398 1403 1407 1411 1415 1419 1423 1426 1430 1432 1436 1440 1443 1446 1450 1453 1456 1458 1460 1463 1465
1346 1345 1344 1344 1344 1345 1345 1346 1348 1349 1351 1353 1355 1358 1361 1365 1369 1375 1380 1386 1391 1395 1400 1404 1408 1412 1416 1420 1423 1426 1429 1432 1436 1439 1442 1445 1448 1451 1453 1456 1458 1460 1462
1350 1348 1347 1347 1347 1347 1348 1349 1350 1351 1353 1355 1357 1360 1364 1368 1373 1378 1383 1388 1393 1397 1401 1405 1409 1413 1416 1420 1423 1425 1428 1431 1435 1438 1441 1443 1446 1449 1451 1453 1455 1457 1458